When you browse on this site, cookies collect data to enhance your experience and personalize the content and advertising you see.
Visit our Privacy Policy to learn more. By continuing to use the site, you agree to this use of cookies and data.
  • En España
  • Lista de países
  • Para 7 días
  • Temperatura del agua
  • Mapa Satelital
  • El tiempo en el mapa
  • Informadores
  • user-avatar
    Iniciar sesión

    Tiempo cada hora Lubango

    Hoy, 19 Diciembre, Miércoles

    Tiempo Temperatura Precipitaciones Viento Presión Humedad
    00:00 +15°C° 0 mm 1 mps 609 mmHg 74%
    01:00 +15°C° 0 mm 1 mps 609 mmHg 76%
    02:00 +15°C° 0 mm 1 mps 609 mmHg 76%
    03:00 +14°C° 0 mm 1 mps 609 mmHg 77%
    04:00 +14°C° 0 mm 1 mps 609 mmHg 77%
    05:00 +15°C° 0 mm 1 mps 609 mmHg 73%
    06:00 +15°C° 0 mm 0 mps 610 mmHg 69%
    07:00 +16°C° 0 mm 0 mps 610 mmHg 65%
    08:00 +20°C° 0 mm 1 mps 611 mmHg 54%
    09:00 +23°C° 0 mm 1 mps 612 mmHg 44%
    10:00 +26°C° 0 mm 2 mps 613 mmHg 33%
    11:00 +27°C° 0 mm 2 mps 613 mmHg 30%
    12:00 +28°C° 0 mm 3 mps 613 mmHg 27%
    13:00 +30°C° 0 mm 3 mps 613 mmHg 25%
    14:00 +29°C° 0 mm 3 mps 612 mmHg 27%
    15:00 +28°C° 0 mm 4 mps 611 mmHg 29%
    16:00 +27°C° 0 mm 4 mps 610 mmHg 31%
    17:00 +25°C° 0 mm 4 mps 610 mmHg 37%
    18:00 +22°C° 0 mm 3 mps 609 mmHg 43%
    19:00 +20°C° 0 mm 3 mps 609 mmHg 50%
    20:00 +18°C° 0 mm 2 mps 609 mmHg 55%
    21:00 +17°C° 0 mm 2 mps 609 mmHg 60%
    22:00 +16°C° 0 mm 1 mps 609 mmHg 65%
    23:00 +16°C° 0 mm 1 mps 609 mmHg 67%

    Mañana, 20 Diciembre, Jueves

    Tiempo Temperatura Precipitaciones Viento Presión Humedad
    00:00 +15°C° 0 mm 1 mps 609 mmHg 69%
    01:00 +15°C° 0 mm 1 mps 608 mmHg 71%
    02:00 +15°C° 0 mm 1 mps 608 mmHg 72%
    03:00 +14°C° 0 mm 1 mps 608 mmHg 73%
    04:00 +14°C° 0 mm 1 mps 608 mmHg 74%
    05:00 +15°C° 0 mm 1 mps 608 mmHg 69%
    06:00 +16°C° 0 mm 1 mps 609 mmHg 64%
    07:00 +18°C° 0 mm 1 mps 610 mmHg 59%
    08:00 +21°C° 0 mm 1 mps 611 mmHg 48%
    09:00 +24°C° 0 mm 2 mps 612 mmHg 36%
    10:00 +27°C° 0 mm 2 mps 613 mmHg 25%
    11:00 +28°C° 0 mm 3 mps 613 mmHg 23%
    12:00 +29°C° 0 mm 3 mps 613 mmHg 22%
    13:00 +30°C° 0 mm 3 mps 613 mmHg 20%
    14:00 +29°C° 0 mm 3 mps 612 mmHg 23%
    15:00 +28°C° 0 mm 4 mps 611 mmHg 25%
    16:00 +27°C° 0 mm 4 mps 610 mmHg 28%
    17:00 +25°C° 0 mm 4 mps 610 mmHg 36%
    18:00 +21°C° 0 mm 3 mps 609 mmHg 44%
    19:00 +18°C° 0 mm 3 mps 609 mmHg 53%
    20:00 +17°C° 0 mm 2 mps 609 mmHg 59%
    21:00 +16°C° 0 mm 2 mps 609 mmHg 65%
    22:00 +14°C° 0 mm 1 mps 609 mmHg 71%
    23:00 +14°C° 0 mm 1 mps 609 mmHg 74%

    Pasado mañana, 21 Diciembre, Viernes

    Tiempo Temperatura Precipitaciones Viento Presión Humedad
    00:00 +13°C° 0 mm 1 mps 608 mmHg 76%
    01:00 +13°C° 0 mm 1 mps 608 mmHg 78%
    02:00 +12°C° 0 mm 1 mps 608 mmHg 79%
    03:00 +12°C° 0 mm 1 mps 607 mmHg 80%
    04:00 +12°C° 0 mm 1 mps 607 mmHg 80%
    05:00 +13°C° 0 mm 1 mps 608 mmHg 73%
    06:00 +15°C° 0 mm 1 mps 609 mmHg 65%
    07:00 +15°C° 0 mm 0 mps 610 mmHg 58%
    08:00 +20°C° 0 mm 1 mps 611 mmHg 46%
    09:00 +24°C° 0 mm 2 mps 612 mmHg 34%
    10:00 +27°C° 0 mm 2 mps 613 mmHg 22%
    11:00 +28°C° 0 mm 3 mps 613 mmHg 20%
    12:00 +30°C° 0 mm 3 mps 613 mmHg 18%
    13:00 +31°C° 0 mm 3 mps 613 mmHg 16%
    14:00 +30°C° 0 mm 4 mps 612 mmHg 19%
    15:00 +30°C° 0 mm 4 mps 611 mmHg 21%
    16:00 +29°C° 0 mm 5 mps 610 mmHg 23%
    17:00 +26°C° 0 mm 4 mps 609 mmHg 32%
    18:00 +21°C° 0 mm 3 mps 608 mmHg 41%
    19:00 +18°C° 0 mm 3 mps 608 mmHg 50%
    20:00 +17°C° 0 mm 2 mps 608 mmHg 56%
    21:00 +15°C° 0 mm 2 mps 608 mmHg 63%
    22:00 +14°C° 0 mm 1 mps 608 mmHg 69%
    23:00 +14°C° 0 mm 1 mps 608 mmHg 71%

    22 Diciembre, Sábado

    Tiempo Temperatura Precipitaciones Viento Presión Humedad
    00:00 +13°C° 0 mm 1 mps 607 mmHg 72%
    01:00 +13°C° 0 mm 1 mps 607 mmHg 74%
    02:00 +12°C° 0 mm 1 mps 607 mmHg 75%
    03:00 +12°C° 0 mm 1 mps 607 mmHg 76%
    04:00 +12°C° 0 mm 1 mps 606 mmHg 77%
    05:00 +13°C° 0 mm 1 mps 607 mmHg 70%
    06:00 +15°C° 0 mm 1 mps 608 mmHg 62%
    07:00 +16°C° 0 mm 1 mps 609 mmHg 55%
    08:00 +20°C° 0 mm 1 mps 610 mmHg 45%
    09:00 +23°C° 0 mm 2 mps 611 mmHg 36%
    10:00 +26°C° 0 mm 2 mps 612 mmHg 26%
    11:00 +28°C° 0 mm 2 mps 612 mmHg 24%
    12:00 +29°C° 0 mm 3 mps 612 mmHg 22%
    13:00 +31°C° 0 mm 3 mps 611 mmHg 20%
    14:00 +30°C° 0 mm 3 mps 611 mmHg 22%
    15:00 +28°C° 0 mm 3 mps 610 mmHg 24%
    16:00 +27°C° 0 mm 4 mps 609 mmHg 26%
    17:00 +25°C° 0 mm 3 mps 608 mmHg 35%
    18:00 +21°C° 0 mm 3 mps 608 mmHg 43%
    19:00 +18°C° 0 mm 2 mps 607 mmHg 51%
    20:00 +17°C° 0 mm 2 mps 607 mmHg 57%
    21:00 +16°C° 0 mm 2 mps 607 mmHg 63%
    22:00 +14°C° 0 mm 1 mps 607 mmHg 69%
    23:00 +14°C° 0 mm 1 mps 607 mmHg 70%

    23 Diciembre, Domingo

    Tiempo Temperatura Precipitaciones Viento Presión Humedad
    00:00 +14°C° 0 mm 1 mps 607 mmHg 71%
    01:00 +14°C° 0 mm 1 mps 607 mmHg 71%
    02:00 +14°C° 0 mm 1 mps 607 mmHg 74%
    03:00 +14°C° 0 mm 1 mps 606 mmHg 76%
    04:00 +13°C° 0 mm 1 mps 606 mmHg 78%
    05:00 +14°C° 0.2 mm 1 mps 607 mmHg 72%
    06:00 +16°C° 0.2 mm 1 mps 608 mmHg 66%
    07:00 +18°C° 0.2 mm 1 mps 609 mmHg 59%
    08:00 +21°C° 0 mm 1 mps 610 mmHg 49%
    09:00 +23°C° 0 mm 1 mps 611 mmHg 39%
    10:00 +26°C° 0 mm 1 mps 612 mmHg 29%
    11:00 +28°C° 0 mm 2 mps 612 mmHg 27%
    12:00 +29°C° 0 mm 2 mps 611 mmHg 25%
    13:00 +30°C° 0 mm 2 mps 611 mmHg 24%
    14:00 +29°C° 0 mm 3 mps 610 mmHg 27%
    15:00 +27°C° 0 mm 3 mps 609 mmHg 30%
    16:00 +26°C° 0 mm 3 mps 609 mmHg 34%
    17:00 +24°C° 0 mm 3 mps 608 mmHg 41%
    18:00 +21°C° 0 mm 3 mps 608 mmHg 48%
    19:00 +19°C° 0 mm 2 mps 608 mmHg 55%
    20:00 +18°C° 0 mm 2 mps 608 mmHg 60%
    21:00 +18°C° 0 mm 1 mps 608 mmHg 66%
    22:00 +16°C° 0 mm 1 mps 608 mmHg 71%
    23:00 +15°C° 0 mm 1 mps 608 mmHg 74%

    24 Diciembre, Lunes

    Tiempo Temperatura Precipitaciones Viento Presión Humedad
    00:00 +14°C° 0 mm 0 mps 607 mmHg 76%
    01:00 +13°C° 0 mm 0 mps 607 mmHg 78%
    02:00 +13°C° 0 mm 0 mps 607 mmHg 78%
    03:00 +13°C° 0 mm 0 mps 607 mmHg 77%
    04:00 +13°C° 0 mm 0 mps 607 mmHg 77%
    05:00 +14°C° 0.1 mm 0 mps 608 mmHg 72%
    06:00 +15°C° 0.1 mm 0 mps 608 mmHg 68%
    07:00 +16°C° 0.1 mm 0 mps 609 mmHg 63%
    08:00 +20°C° 0 mm 1 mps 610 mmHg 56%
    09:00 +22°C° 0 mm 1 mps 611 mmHg 49%
    10:00 +24°C° 0 mm 2 mps 611 mmHg 42%
    11:00 +23°C° 0.2 mm 1 mps 611 mmHg 43%
    12:00 +23°C° 0.2 mm 1 mps 610 mmHg 44%
    13:00 +23°C° 0.2 mm 1 mps 610 mmHg 45%
    14:00 +23°C° 0.2 mm 1 mps 610 mmHg 45%
    15:00 +24°C° 0.2 mm 2 mps 609 mmHg 44%
    16:00 +24°C° 0.2 mm 2 mps 609 mmHg 44%
    17:00 +23°C° 0.1 mm 2 mps 609 mmHg 50%
    18:00 +20°C° 0.1 mm 2 mps 609 mmHg 56%
    19:00 +18°C° 0.1 mm 2 mps 608 mmHg 62%
    20:00 +18°C° 0 mm 1 mps 608 mmHg 67%
    21:00 +16°C° 0 mm 1 mps 609 mmHg 71%
    22:00 +16°C° 0 mm 1 mps 609 mmHg 76%
    23:00 +15°C° 0 mm 1 mps 608 mmHg 78%
    Mostrar más